Simultaneous Nadir Overpasses (SNOs) Predictions

Prediction of SNOs between GOES-16 and AQUA Satellite Orbit:

Table of predicted SNOs for the next 14.0 days since TLE Epoch: 10/30/2021
Index Date Time (GOES-16) GOES-16 Lat,Lon AQUA Lat,Lon Distance(km) Time Diff (sec)
1 10/30/2021 06:38:26 -0.01, -75.23 0.02, -75.35 13.62 80
2 11/01/2021 06:23:37 -0.02, -75.26 -0.65, -72.41 325.05 80
3 11/01/2021 18:45:01 0.01, -75.28 -0.48, -77.59 263.46 80
4 11/03/2021 18:35:31 0.00, -75.31 0.14, -74.64 76.22 80
5 11/05/2021 18:23:21 -0.01, -75.35 0.78, -71.69 416.21 80
6 11/06/2021 06:44:36 0.01, -75.35 0.32, -76.84 169.81 80
7 11/08/2021 06:29:47 0.01, -75.38 -0.33, -73.89 170.05 80
8 11/08/2021 18:51:10 -0.02, -75.40 -0.78, -79.08 418.62 80
9 11/10/2021 18:41:39 -0.01, -75.44 -0.18, -76.12 78.07 80
10 11/12/2021 18:26:49 -0.01, -75.49 0.50, -73.18 263.57 80
